This is the latest recevied weather packets stored in our database for station/object NI4CE-11. If no packets are shown the sender has not sent any weather packets the latest 10 day(s).
| Time | Temp. | Humidity | Pressure | Rain* | Wind** | Luminosity | Snow |
|---|---|---|---|---|---|---|---|
| 1777687508 | 26.11° C | 100% | 1012.1 hPa | 0 mm | - | - | - |
| 1777687208 | 25.56° C | 100% | 1012.1 hPa | 0 mm | - | - | - |
| 1777687137 | 27.22° C | 100% | 1012 hPa | 0 mm | - | - | - |
| 1777686908 | 26.67° C | 100% | 1012.1 hPa | 0 mm | - | - | - |
| 1777686608 | 27.22° C | 100% | 1012 hPa | 0 mm | - | - | - |
| 1777686308 | 26.11° C | 100% | 1012 hPa | 0 mm | - | - | - |
| 1777686008 | 26.67° C | 100% | 1012 hPa | 0 mm | - | - | - |
| 1777685708 | 27.22° C | 100% | 1011.9 hPa | 0 mm | - | - | - |
| 1777685408 | 27.22° C | 100% | 1011.9 hPa | 0 mm | - | - | - |
| 1777685108 | 26.11° C | 100% | 1011.8 hPa | 0 mm | - | - | - |
| 1777684808 | 27.22° C | 100% | 1011.8 hPa | 0 mm | - | - | - |
| 1777684508 | 27.78° C | 100% | 1011.6 hPa | 0 mm | - | - | - |
| 1777684208 | 27.22° C | 100% | 1011.6 hPa | 0 mm | - | - | - |
| 1777683908 | 26.11° C | 100% | 1011.6 hPa | 0 mm | - | - | - |
| 1777683608 | 27.22° C | 100% | 1011.5 hPa | 0 mm | - | - | - |
| 1777683308 | 27.78° C | 100% | 1011.5 hPa | 0 mm | - | - | - |
| 1777683008 | 27.22° C | 100% | 1011.5 hPa | 0 mm | - | - | - |
| 1777682708 | 26.67° C | 100% | 1011.5 hPa | 0 mm | - | - | - |
| 1777682408 | 27.78° C | 100% | 1011.4 hPa | 0 mm | - | - | - |
| 1777682108 | 27.78° C | 100% | 1011.3 hPa | 0 mm | - | - | - |
| 1777681932 | 28.33° C | 100% | 1011.2 hPa | 0 mm | - | - | - |
| 1777681808 | 27.78° C | 100% | 1011.3 hPa | 0 mm | - | - | - |
| 1777681508 | 26.67° C | 100% | 1011.2 hPa | 0 mm | - | - | - |
| 1777681208 | 28.33° C | 100% | 1011.2 hPa | 0 mm | - | - | - |
| 1777681044 | 28.89° C | 100% | 1011 hPa | 0 mm | - | - | - |
* Rain latest hour (hover to see other rain measurements)
** Current wind speed in m/s (hover to see current wind gust speed)